Albany, NY

3:09 AM EDT on March 25, 2017 (GMT -0400)
Albany International

Weather History for KALB - May, 2014

Change the Weather History Date:

Saturday, May 10, 2014

  Actual Average Record
Temperature  
Mean Temperature 72 °F 56 °F  
Max Temperature 81 °F 68 °F 92 °F (1970)
Min Temperature 62 °F 45 °F 28 °F (1958)
Degree Days  
Heating Degree Days 0 9  
Month to date heating degree days 92 103  
Since 1 July heating degree days 6881 6496  
Cooling Degree Days 7 0  
Month to date cooling degree days 7 0  
Year to date cooling degree days 13 4  
Growing Degree Days 22 (Base 50)    
Moisture  
Dew Point 55 °F    
Average Humidity 61    
Maximum Humidity 93    
Minimum Humidity 28    
Precipitation  
Precipitation 0.05 in 0.11 in 2.01 in (1931)
Month to date precipitation 0.51 1.08  
Year to date precipitation 11.46 12.25  
Snow  
Snow 0.00 in 0.00 in 5.00 in (1945)
Month to date snowfall 0.0 0.1  
Since 1 July snowfall 73.5 60.3  
Snow Depth 0.00 in    
Sea Level Pressure  
Sea Level Pressure 29.83 in    
Wind  
Wind Speed 11 mph (SSW)    
Max Wind Speed 24 mph    
Max Gust Speed 33 mph    
Visibility 9 miles    
Events Rain    
T = Trace of Precipitation, MM = Missing Value Source: NWS Daily Summary

Daily Weather History Graph

Daily Weather History Graph

Search for Another Location

Airport or City:

Trip Planner

Search our weather history database for the weather conditions in past years. The results will help you decide how hot, cold, wet, or windy it might be!

Date:

Astronomy

May. 10, 2014 Rise Set
Actual Time 5:38 AM EDT 8:05 PM EDT
Civil Twilight 5:06 AM EDT 8:37 PM EDT
Nautical Twilight 4:26 AM EDT 9:17 PM EDT
Astronomical Twilight 3:42 AM EDT 10:02 PM EDT
Moon 3:53 PM EDT (5/10) 3:16 AM EDT (5/10)
Length of Visible Light 15h 31m
Length of Day
14h 27m
Waxing Gibbous, 82% of the Moon is Illuminated
May 10
Waxing Gibbous
May 14
Full
May 21
Last Quarter
May 28
New
Jun 5
First Quarter

Hourly Weather History & Observations

Time (EDT) Temp. Heat Index Dew Point Humidity Pressure Visibility Wind Dir Wind Speed Gust Speed Precip Events Conditions
12:51 AM 63.0 °F - 57.9 °F 84% 29.94 in 10.0 mi South 13.8 mph 26.5 mph 0.00 in   Light Drizzle
1:51 AM 63.0 °F - 57.9 °F 84% 29.92 in 10.0 mi South 10.4 mph - 0.00 in   Overcast
2:51 AM 63.0 °F - 57.9 °F 84% 29.90 in 10.0 mi South 9.2 mph - 0.00 in Rain Light Rain
3:51 AM 63.0 °F - 57.9 °F 84% 29.86 in 10.0 mi South 8.1 mph - 0.00 in   Light Drizzle
4:15 AM 62.1 °F - 57.9 °F 86% 29.87 in 10.0 mi SSW 8.1 mph - 0.00 in Rain Light Rain
4:51 AM 62.1 °F - 59.0 °F 90% 29.86 in 10.0 mi South 11.5 mph - 0.00 in   Overcast
5:51 AM 63.0 °F - 60.1 °F 90% 29.84 in 8.0 mi South 10.4 mph - 0.00 in Rain Light Rain
6:51 AM 63.0 °F - 60.1 °F 90% 29.84 in 3.0 mi South 16.1 mph - 0.01 in Rain Light Rain
7:51 AM 62.1 °F - 60.1 °F 93% 29.86 in 4.0 mi South 10.4 mph - 0.02 in   Overcast
8:51 AM 63.0 °F - 61.0 °F 93% 29.85 in 4.0 mi South 9.2 mph - 0.02 in Rain Light Rain
9:51 AM 66.0 °F - 62.1 °F 87% 29.86 in 4.0 mi SSE 9.2 mph - 0.00 in   Mostly Cloudy
10:29 AM 69.1 °F - 63.0 °F 81% 29.85 in 7.0 mi South 9.2 mph - N/A   Mostly Cloudy
10:51 AM 69.8 °F - 62.6 °F 78% 29.85 in 8.0 mi South 8.1 mph - N/A   Mostly Cloudy
11:51 AM 72.0 °F - 62.1 °F 71% 29.84 in 10.0 mi South 9.2 mph - N/A   Mostly Cloudy
12:51 PM 75.0 °F - 62.1 °F 64% 29.82 in 10.0 mi SSE 9.2 mph - N/A   Scattered Clouds
1:51 PM 75.0 °F - 60.1 °F 60% 29.79 in 10.0 mi SSE 11.5 mph - 0.00 in   Mostly Cloudy
2:51 PM 79.0 °F - 61.0 °F 54% 29.77 in 10.0 mi ESE 8.1 mph - N/A   Mostly Cloudy
3:46 PM 80.6 °F 80.3 °F 53.6 °F 39% 29.75 in 10.0 mi NW 16.1 mph 26.5 mph 0.00 in   Mostly Cloudy
3:51 PM 79.0 °F - 57.9 °F 48% 29.75 in 10.0 mi North 9.2 mph 26.5 mph 0.00 in   Mostly Cloudy
4:51 PM 79.0 °F - 50.0 °F 36% 29.74 in 10.0 mi WSW 12.7 mph - N/A   Mostly Cloudy
5:51 PM 79.0 °F - 55.0 °F 44% 29.74 in 10.0 mi West 6.9 mph - N/A   Mostly Cloudy
6:51 PM 75.9 °F - 52.0 °F 43% 29.74 in 10.0 mi WSW 9.2 mph - N/A   Mostly Cloudy
7:51 PM 73.0 °F - 51.1 °F 46% 29.77 in 10.0 mi West 12.7 mph - N/A   Mostly Cloudy
8:51 PM 71.1 °F - 51.1 °F 49% 29.80 in 10.0 mi WNW 13.8 mph - N/A   Mostly Cloudy
9:51 PM 70.0 °F - 45.0 °F 41% 29.82 in 10.0 mi WNW 20.7 mph 29.9 mph N/A   Overcast
10:51 PM 66.0 °F - 32.0 °F 28% 29.85 in 10.0 mi WNW 21.9 mph 28.8 mph N/A   Overcast
11:51 PM 64.0 °F - 37.0 °F 37% 29.87 in 10.0 mi WNW 13.8 mph 31.1 mph N/A   Overcast